Stündliche Wetter Holon

Heute, 21 Juni, Montag

Zeit Temperatur Niederschläge Wind Luftdruck Luftfeuchtigkeit
00:00 +25°C° 0 mm 1 m/S 756 mmHg 69%
01:00 +25°C° 0 mm 1 m/S 755 mmHg 69%
02:00 +24°C° 0 mm 1 m/S 755 mmHg 70%
03:00 +24°C° 0 mm 1 m/S 755 mmHg 70%
04:00 +24°C° 0 mm 1 m/S 755 mmHg 71%
05:00 +24°C° 0 mm 1 m/S 755 mmHg 71%
06:00 +25°C° 0 mm 1 m/S 756 mmHg 66%
07:00 +26°C° 0 mm 1 m/S 756 mmHg 61%
08:00 +27°C° 0 mm 1 m/S 756 mmHg 55%
09:00 +28°C° 0 mm 2 m/S 756 mmHg 52%
10:00 +29°C° 0 mm 3 m/S 756 mmHg 49%
11:00 +30°C° 0 mm 4 m/S 756 mmHg 46%
12:00 +30°C° 0 mm 4 m/S 756 mmHg 46%
13:00 +30°C° 0 mm 4 m/S 756 mmHg 46%
14:00 +30°C° 0 mm 5 m/S 755 mmHg 45%
15:00 +30°C° 0 mm 5 m/S 756 mmHg 48%
16:00 +29°C° 0 mm 5 m/S 756 mmHg 51%
17:00 +29°C° 0 mm 5 m/S 756 mmHg 54%
18:00 +28°C° 0 mm 4 m/S 756 mmHg 57%
19:00 +28°C° 0 mm 3 m/S 756 mmHg 60%
20:00 +27°C° 0 mm 2 m/S 756 mmHg 64%
21:00 +27°C° 0 mm 1 m/S 756 mmHg 65%
22:00 +26°C° 0 mm 1 m/S 756 mmHg 67%
23:00 +26°C° 0 mm 1 m/S 756 mmHg 68%

Morgen, 22 Juni, Dienstag

Zeit Temperatur Niederschläge Wind Luftdruck Luftfeuchtigkeit
00:00 +26°C° 0 mm 1 m/S 756 mmHg 70%
01:00 +25°C° 0 mm 1 m/S 756 mmHg 71%
02:00 +25°C° 0 mm 1 m/S 756 mmHg 73%
03:00 +25°C° 0 mm 1 m/S 756 mmHg 73%
04:00 +25°C° 0 mm 1 m/S 756 mmHg 74%
05:00 +25°C° 0 mm 1 m/S 756 mmHg 74%
06:00 +26°C° 0 mm 2 m/S 756 mmHg 70%
07:00 +27°C° 0 mm 2 m/S 757 mmHg 65%
08:00 +28°C° 0 mm 2 m/S 757 mmHg 61%
09:00 +28°C° 0 mm 3 m/S 757 mmHg 57%
10:00 +29°C° 0 mm 3 m/S 757 mmHg 53%
11:00 +30°C° 0 mm 4 m/S 757 mmHg 49%
12:00 +30°C° 0 mm 4 m/S 756 mmHg 49%
13:00 +30°C° 0 mm 5 m/S 756 mmHg 49%
14:00 +30°C° 0 mm 5 m/S 756 mmHg 49%
15:00 +30°C° 0 mm 5 m/S 756 mmHg 52%
16:00 +29°C° 0 mm 5 m/S 756 mmHg 54%
17:00 +29°C° 0 mm 5 m/S 756 mmHg 56%
18:00 +28°C° 0 mm 4 m/S 756 mmHg 60%
19:00 +27°C° 0 mm 3 m/S 756 mmHg 64%
20:00 +27°C° 0 mm 2 m/S 756 mmHg 69%
21:00 +26°C° 0 mm 2 m/S 756 mmHg 70%
22:00 +26°C° 0 mm 1 m/S 756 mmHg 71%
23:00 +26°C° 0 mm 1 m/S 757 mmHg 72%

übermorgen, 23 Juni, Mittwoch

Zeit Temperatur Niederschläge Wind Luftdruck Luftfeuchtigkeit
00:00 +25°C° 0 mm 1 m/S 756 mmHg 73%
01:00 +25°C° 0 mm 1 m/S 756 mmHg 74%
02:00 +25°C° 0 mm 1 m/S 756 mmHg 76%
03:00 +25°C° 0 mm 1 m/S 756 mmHg 76%
04:00 +25°C° 0 mm 1 m/S 756 mmHg 76%
05:00 +25°C° 0 mm 1 m/S 756 mmHg 77%
06:00 +25°C° 0 mm 1 m/S 756 mmHg 72%
07:00 +26°C° 0 mm 1 m/S 756 mmHg 68%
08:00 +27°C° 0 mm 2 m/S 757 mmHg 64%
09:00 +28°C° 0 mm 2 m/S 756 mmHg 60%
10:00 +29°C° 0 mm 3 m/S 756 mmHg 56%
11:00 +30°C° 0 mm 3 m/S 756 mmHg 52%
12:00 +30°C° 0 mm 4 m/S 756 mmHg 51%
13:00 +30°C° 0 mm 4 m/S 756 mmHg 51%
14:00 +32°C° 0 mm 4 m/S 755 mmHg 50%
15:00 +30°C° 0 mm 4 m/S 755 mmHg 52%
16:00 +30°C° 0 mm 4 m/S 755 mmHg 54%
17:00 +29°C° 0 mm 5 m/S 755 mmHg 56%
18:00 +28°C° 0 mm 4 m/S 755 mmHg 60%
19:00 +28°C° 0 mm 3 m/S 756 mmHg 65%
20:00 +27°C° 0 mm 3 m/S 756 mmHg 70%
21:00 +26°C° 0 mm 2 m/S 756 mmHg 71%
22:00 +26°C° 0 mm 2 m/S 756 mmHg 72%
23:00 +26°C° 0 mm 1 m/S 756 mmHg 74%

24 Juni, Donnerstag

Zeit Temperatur Niederschläge Wind Luftdruck Luftfeuchtigkeit
00:00 +26°C° 0 mm 1 m/S 756 mmHg 75%
01:00 +25°C° 0 mm 1 m/S 755 mmHg 76%
02:00 +23°C° 0 mm 0 m/S 755 mmHg 76%
03:00 +23°C° 0 mm 0 m/S 755 mmHg 77%
04:00 +23°C° 0 mm 0 m/S 755 mmHg 77%
05:00 +23°C° 0 mm 0 m/S 755 mmHg 77%
06:00 +24°C° 0 mm 0 m/S 755 mmHg 71%
07:00 +27°C° 0 mm 1 m/S 755 mmHg 65%
08:00 +28°C° 0 mm 1 m/S 755 mmHg 60%
09:00 +29°C° 0 mm 2 m/S 755 mmHg 56%
10:00 +30°C° 0 mm 3 m/S 755 mmHg 52%
11:00 +32°C° 0 mm 4 m/S 755 mmHg 48%
12:00 +33°C° 0 mm 4 m/S 754 mmHg 48%
13:00 +33°C° 0 mm 5 m/S 754 mmHg 48%
14:00 +33°C° 0 mm 5 m/S 754 mmHg 48%
15:00 +32°C° 0 mm 5 m/S 754 mmHg 51%
16:00 +32°C° 0 mm 5 m/S 754 mmHg 55%
17:00 +30°C° 0 mm 6 m/S 754 mmHg 58%
18:00 +29°C° 0 mm 5 m/S 754 mmHg 62%
19:00 +28°C° 0 mm 4 m/S 754 mmHg 67%
20:00 +28°C° 0 mm 3 m/S 754 mmHg 71%
21:00 +27°C° 0 mm 2 m/S 754 mmHg 73%
22:00 +27°C° 0 mm 2 m/S 754 mmHg 74%
23:00 +26°C° 0 mm 1 m/S 754 mmHg 76%

25 Juni, Freitag

Zeit Temperatur Niederschläge Wind Luftdruck Luftfeuchtigkeit
00:00 +26°C° 0 mm 1 m/S 754 mmHg 77%
01:00 +26°C° 0 mm 1 m/S 754 mmHg 78%
02:00 +26°C° 0 mm 1 m/S 754 mmHg 79%
03:00 +26°C° 0 mm 1 m/S 754 mmHg 78%
04:00 +23°C° 0 mm 0 m/S 754 mmHg 78%
05:00 +23°C° 0 mm 0 m/S 754 mmHg 78%
06:00 +27°C° 0 mm 1 m/S 754 mmHg 72%
07:00 +28°C° 0 mm 1 m/S 754 mmHg 65%
08:00 +29°C° 0 mm 1 m/S 754 mmHg 59%
09:00 +30°C° 0 mm 2 m/S 754 mmHg 55%
10:00 +31°C° 0 mm 3 m/S 754 mmHg 51%
11:00 +34°C° 0 mm 4 m/S 754 mmHg 47%
12:00 +34°C° 0 mm 4 m/S 753 mmHg 47%
13:00 +34°C° 0 mm 5 m/S 753 mmHg 46%
14:00 +34°C° 0 mm 5 m/S 753 mmHg 46%
15:00 +34°C° 0 mm 5 m/S 753 mmHg 48%
16:00 +33°C° 0 mm 5 m/S 753 mmHg 51%
17:00 +32°C° 0 mm 5 m/S 752 mmHg 53%
18:00 +30°C° 0 mm 4 m/S 753 mmHg 59%
19:00 +29°C° 0 mm 3 m/S 753 mmHg 64%
20:00 +28°C° 0 mm 3 m/S 753 mmHg 69%
21:00 +28°C° 0 mm 2 m/S 753 mmHg 71%
22:00 +27°C° 0 mm 1 m/S 753 mmHg 72%
23:00 +27°C° 0 mm 1 m/S 753 mmHg 74%

26 Juni, Samstag

Zeit Temperatur Niederschläge Wind Luftdruck Luftfeuchtigkeit
00:00 +27°C° 0 mm 1 m/S 752 mmHg 73%
01:00 +24°C° 0 mm 0 m/S 752 mmHg 73%
02:00 +24°C° 0 mm 0 m/S 752 mmHg 73%
03:00 +24°C° 0 mm 0 m/S 752 mmHg 73%
04:00 +24°C° 0 mm 0 m/S 753 mmHg 73%
05:00 +24°C° 0 mm 0 m/S 753 mmHg 74%
06:00 +25°C° 0 mm 0 m/S 753 mmHg 68%
07:00 +26°C° 0 mm 0 m/S 753 mmHg 62%
08:00 +30°C° 0 mm 1 m/S 753 mmHg 56%
09:00 +31°C° 0 mm 2 m/S 753 mmHg 52%
10:00 +33°C° 0 mm 3 m/S 752 mmHg 48%
11:00 +34°C° 0 mm 4 m/S 752 mmHg 45%
12:00 +35°C° 0 mm 4 m/S 752 mmHg 45%
13:00 +35°C° 0 mm 5 m/S 752 mmHg 45%
14:00 +35°C° 0 mm 5 m/S 751 mmHg 44%
15:00 +34°C° 0 mm 5 m/S 751 mmHg 47%
16:00 +33°C° 0 mm 5 m/S 751 mmHg 50%
17:00 +33°C° 0 mm 5 m/S 751 mmHg 53%
18:00 +32°C° 0 mm 4 m/S 751 mmHg 58%
19:00 +30°C° 0 mm 3 m/S 752 mmHg 62%
20:00 +29°C° 0 mm 2 m/S 752 mmHg 66%
21:00 +28°C° 0 mm 2 m/S 752 mmHg 68%
22:00 +28°C° 0 mm 2 m/S 752 mmHg 70%
23:00 +28°C° 0 mm 1 m/S 752 mmHg 72%
Mehr zeigen

Wir brauchen deine Erlaubnis

Meteoprog und unser Service Anbieter werden persönliche Daten aufbewahren, so wie Cookies, Geräte Bezeichnung oder ähnliche Technologien von deinem Gerät und Prozess, so wie Persönliche Daten Inhalte und Werbungen, genauso wie social Media und den Verkehr zu analysieren.

  • Aufbewahrung und/oder Zugang zu deiner Geräte Informationen.

    Cookies, Geräte Bezeichnung oder andere Informationen, können aufbewahrt oder Zugang zu deinem Gerät erhalten, für den Grund, der oben angegeben wird.

  • Personalisierte Werbung und Inhalte, Messungen, Einblick in das Publikum und Produkt Entwicklung.

    Werbungen und Inhalte können personalisiert werden, basierend auf ein Profil. Mehr Daten können besser personalisierte Werbungen und Inhalte hinzufügen. Werbung und Inhalte können gezeigt und gemessen werden. Einblicke über das Publikum, welche die Werbung gesehen haben und den Inhalt, können abgeleitet werden. So wie Daten können genutzt werden, um es zu verbessern oder die Benutzer Erfahrung zu verbessern das System und die Software.

Wenn du “Ich stimme zu” klickst, erlaubst du uns, die Cookies zu benutzen die Geräte Bezeichnung, den Web oder ähnliche Technologien zu benutzen. Deine Settings, können in deinem Gerät bei deinem Browser geändert werden.

Für den bestimmten Zweck, berechtigten Interessen beruhen darauf, mehr als auf den Inhalt. Du kannst mehr darüber in unseren Privaten und Cookie Politik lesen.